This is the latest recevied weather packets stored in our database for station/object KM4RT-13. If no packets are shown the sender has not sent any weather packets the latest 10 day(s).
| Time | Temp. | Humidity | Pressure | Rain* | Wind** | Luminosity | Snow |
|---|---|---|---|---|---|---|---|
| 1788139843 | 81° F | 81% | 760.6 mmHg | 0 in | - | 0 W/m² | - |
| 1788139543 | 81° F | 80% | 760.6 mmHg | 0 in | - | 0 W/m² | - |
| 1788139238 | 81° F | 80% | 760.5 mmHg | 0 in | - | 0 W/m² | - |
| 1788138938 | 82° F | 80% | 760.3 mmHg | 0 in | - | 0 W/m² | - |
| 1788138633 | 82° F | 78% | 760.4 mmHg | 0 in | - | 0 W/m² | - |
| 1788138328 | 82° F | 77% | 760.4 mmHg | 0 in | - | 0 W/m² | - |
| 1788138020 | 83° F | 77% | 760.3 mmHg | 0 in | - | 0 W/m² | - |
| 1788137719 | 83° F | 76% | 760.2 mmHg | 0 in | - | 0 W/m² | - |
| 1788137419 | 84° F | 74% | 760.2 mmHg | 0 in | - | 0 W/m² | - |
| 1788137115 | 84° F | 73% | 760.2 mmHg | 0 in | - | 0 W/m² | - |
| 1788136816 | 85° F | 73% | 760.3 mmHg | 0 in | - | 0 W/m² | - |
| 1788136512 | 85° F | 72% | 760.3 mmHg | 0 in | - | 1 W/m² | - |
| 1788136207 | 86° F | 70% | 760.2 mmHg | 0 in | - | 2 W/m² | - |
| 1788135906 | 87° F | 68% | 760.1 mmHg | 0 in | - | 4 W/m² | - |
| 1788135601 | 88° F | 65% | 760 mmHg | 0 in | - | 6 W/m² | - |
| 1788135296 | 88° F | 64% | 760.2 mmHg | 0 in | - | 9 W/m² | - |
| 1788134993 | 89° F | 63% | 760 mmHg | 0 in | - | 12 W/m² | - |
| 1788134689 | 89° F | 63% | 760 mmHg | 0 in | - | 15 W/m² | - |
| 1788134387 | 90° F | 61% | 760.2 mmHg | 0 in | - | 18 W/m² | - |
| 1788134082 | 90° F | 61% | 760.2 mmHg | 0 in | - | 21 W/m² | - |
| 1788133777 | 90° F | 60% | 760 mmHg | 0 in | - | 24 W/m² | - |
| 1788133472 | 90° F | 60% | 760.2 mmHg | 0 in | - | 28 W/m² | - |
| 1788133168 | 91° F | 59% | 760.1 mmHg | 0 in | - | 32 W/m² | - |
| 1788132863 | 92° F | 58% | 760.1 mmHg | 0 in | - | 40 W/m² | - |
| 1788132559 | 92° F | 56% | 760.1 mmHg | 0 in | - | 51 W/m² | - |
* Rain latest hour (hover to see other rain measurements)
** Current wind speed in m/s (hover to see current wind gust speed)